iso_date,epoch_date,Year,Hour,Min,DOY,POS_DOY,Lat,Lon,BP,Ts,Ta,has_bp,has_ts,has_ta,BuoyID,Buoy_Type,Buoy_Owner,Logistics,Hemisphere
2014-08-06T13:37:55Z,1407332275,2014,13,38,218.568,218.568,73.83987,13.25432,-999.00,-999.00,-999.0,no,no,no,300234060795690,IMB,AWI-USIABP,unknown,North
2014-08-06T13:40:48Z,1407332448,2014,13,41,218.57,218.57,73.84715,13.23937,-999.00,-999.00,-999.0,no,no,no,300234060795690,IMB,AWI-USIABP,unknown,North
2014-08-06T13:42:14Z,1407332534,2014,13,42,218.571,218.571,73.84913,13.23441,-999.00,-999.00,-999.0,no,no,no,300234060795690,IMB,AWI-USIABP,unknown,North
2014-08-06T13:43:40Z,1407332621,2014,13,44,218.572,218.572,73.85625,13.21831,-999.00,-999.00,-999.0,no,no,no,300234060795690,IMB,AWI-USIABP,unknown,North
2014-08-06T13:45:07Z,1407332707,2014,13,45,218.573,218.573,73.85715,13.21551,-999.00,-999.00,-999.0,no,no,no,300234060795690,IMB,AWI-USIABP,unknown,North
2014-08-06T13:46:33Z,1407332794,2014,13,46,218.574,218.574,73.86019,13.20942,-999.00,-999.00,-999.0,no,no,no,300234060795690,IMB,AWI-USIABP,unknown,North
2014-08-06T13:50:52Z,1407333053,2014,13,51,218.577,218.577,73.87511,13.17467,-999.00,-999.00,-999.0,no,no,no,300234060795690,IMB,AWI-USIABP,unknown,North
2014-08-06T13:52:19Z,1407333139,2014,13,52,218.578,218.578,73.87925,13.1658,-999.00,-999.00,-999.0,no,no,no,300234060795690,IMB,AWI-USIABP,unknown,North
2014-08-06T13:55:12Z,1407333312,2014,13,55,218.58,218.58,73.88635,13.14956,-999.00,-999.00,-999.0,no,no,no,300234060795690,IMB,AWI-USIABP,unknown,North
2014-08-06T13:56:38Z,1407333398,2014,13,56,218.581,218.581,73.89008,13.14115,-999.00,-999.00,-999.0,no,no,no,300234060795690,IMB,AWI-USIABP,unknown,North
2014-08-06T13:58:04Z,1407333485,2014,13,58,218.582,218.582,73.89327,13.13393,-999.00,-999.00,-999.0,no,no,no,300234060795690,IMB,AWI-USIABP,unknown,North
2014-08-06T13:59:31Z,1407333571,2014,13,59,218.583,218.583,73.89807,13.12346,-999.00,-999.00,-999.0,no,no,no,300234060795690,IMB,AWI-USIABP,unknown,North
2014-08-06T14:00:57Z,1407333658,2014,14,1,218.584,218.584,73.90191,13.11455,-999.00,-999.00,-999.0,no,no,no,300234060795690,IMB,AWI-USIABP,unknown,North
2014-08-06T14:02:24Z,1407333744,2014,14,3,218.585,218.585,73.90799,13.10378,-999.00,-999.00,-999.0,no,no,no,300234060795690,IMB,AWI-USIABP,unknown,North
2014-08-06T14:03:50Z,1407333830,2014,14,4,218.586,218.586,73.91004,13.10515,-999.00,-999.00,-999.0,no,no,no,300234060795690,IMB,AWI-USIABP,unknown,North
2014-08-06T14:05:16Z,1407333917,2014,14,5,218.587,218.587,73.91352,13.11376,-999.00,-999.00,-999.0,no,no,no,300234060795690,IMB,AWI-USIABP,unknown,North
2014-08-06T14:06:43Z,1407334003,2014,14,7,218.588,218.588,73.91708,13.12049,-999.00,-999.00,-999.0,no,no,no,300234060795690,IMB,AWI-USIABP,unknown,North
2014-08-06T14:08:09Z,1407334090,2014,14,8,218.589,218.589,73.92031,13.11656,-999.00,-999.00,-999.0,no,no,no,300234060795690,IMB,AWI-USIABP,unknown,North
2014-08-06T14:09:36Z,1407334176,2014,14,10,218.59,218.59,73.92452,13.10292,-999.00,-999.00,-999.0,no,no,no,300234060795690,IMB,AWI-USIABP,unknown,North
2014-08-06T14:11:02Z,1407334262,2014,14,11,218.591,218.591,73.92711,13.0955,-999.00,-999.00,-999.0,no,no,no,300234060795690,IMB,AWI-USIABP,unknown,North
2014-08-06T14:12:28Z,1407334349,2014,14,13,218.592,218.592,73.93244,13.07941,-999.00,-999.00,-999.0,no,no,no,300234060795690,IMB,AWI-USIABP,unknown,North
2014-08-06T14:13:55Z,1407334435,2014,14,14,218.593,218.593,73.93513,13.07168,-999.00,-999.00,-999.0,no,no,no,300234060795690,IMB,AWI-USIABP,unknown,North
2014-08-06T14:15:21Z,1407334522,2014,14,16,218.594,218.594,73.94059,13.05388,-999.00,-999.00,-999.0,no,no,no,300234060795690,IMB,AWI-USIABP,unknown,North
2014-08-06T14:16:48Z,1407334608,2014,14,17,218.595,218.595,73.94257,13.05005,-999.00,-999.00,-999.0,no,no,no,300234060795690,IMB,AWI-USIABP,unknown,North
2014-08-06T14:18:14Z,1407334694,2014,14,18,218.596,218.596,73.94533,13.04121,-999.00,-999.00,-999.0,no,no,no,300234060795690,IMB,AWI-USIABP,unknown,North
2014-08-06T14:19:40Z,1407334781,2014,14,19,218.597,218.597,73.94877,13.03045,-999.00,-999.00,-999.0,no,no,no,300234060795690,IMB,AWI-USIABP,unknown,North
2014-08-06T14:22:33Z,1407334954,2014,14,22,218.599,218.599,73.95657,13.00785,-999.00,-999.00,-999.0,no,no,no,300234060795690,IMB,AWI-USIABP,unknown,North
2014-08-06T14:24:00Z,1407335040,2014,14,24,218.6,218.6,73.96019,12.9956,-999.00,-999.00,-999.0,no,no,no,300234060795690,IMB,AWI-USIABP,unknown,North
2014-08-06T14:25:26Z,1407335126,2014,14,25,218.601,218.601,73.96424,12.98075,-999.00,-999.00,-999.0,no,no,no,300234060795690,IMB,AWI-USIABP,unknown,North
2014-08-06T14:26:52Z,1407335213,2014,14,27,218.602,218.602,73.96697,12.97217,-999.00,-999.00,-999.0,no,no,no,300234060795690,IMB,AWI-USIABP,unknown,North
2014-08-06T14:28:19Z,1407335299,2014,14,29,218.603,218.603,73.97244,12.9555,-999.00,-999.00,-999.0,no,no,no,300234060795690,IMB,AWI-USIABP,unknown,North
2014-08-06T14:29:45Z,1407335386,2014,14,30,218.604,218.604,73.97431,12.95191,-999.00,-999.00,-999.0,no,no,no,300234060795690,IMB,AWI-USIABP,unknown,North
2014-08-06T14:31:12Z,1407335472,2014,14,31,218.605,218.605,73.97705,12.9442,-999.00,-999.00,-999.0,no,no,no,300234060795690,IMB,AWI-USIABP,unknown,North
2014-08-06T14:32:38Z,1407335558,2014,14,32,218.606,218.606,73.98191,12.93212,-999.00,-999.00,-999.0,no,no,no,300234060795690,IMB,AWI-USIABP,unknown,North
2014-08-06T14:34:04Z,1407335645,2014,14,34,218.607,218.607,73.98624,12.92305,-999.00,-999.00,-999.0,no,no,no,300234060795690,IMB,AWI-USIABP,unknown,North
2014-08-06T14:35:31Z,1407335731,2014,14,35,218.608,218.608,73.98987,12.9137,-999.00,-999.00,-999.0,no,no,no,300234060795690,IMB,AWI-USIABP,unknown,North
2014-08-06T14:36:57Z,1407335818,2014,14,37,218.609,218.609,73.99399,12.90416,-999.00,-999.00,-999.0,no,no,no,300234060795690,IMB,AWI-USIABP,unknown,North
2014-08-06T14:38:24Z,1407335904,2014,14,39,218.61,218.61,74.00011,12.88983,-999.00,-999.00,-999.0,no,no,no,300234060795690,IMB,AWI-USIABP,unknown,North
2014-08-06T14:39:50Z,1407335990,2014,14,40,218.611,218.611,74.00216,12.88651,-999.00,-999.00,-999.0,no,no,no,300234060795690,IMB,AWI-USIABP,unknown,North
2014-08-06T14:41:16Z,1407336077,2014,14,41,218.612,218.612,74.00511,12.87906,-999.00,-999.00,-999.0,no,no,no,300234060795690,IMB,AWI-USIABP,unknown,North
2014-08-06T14:42:43Z,1407336163,2014,14,43,218.613,218.613,74.01101,12.86527,-999.00,-999.00,-999.0,no,no,no,300234060795690,IMB,AWI-USIABP,unknown,North
2014-08-06T14:44:09Z,1407336250,2014,14,44,218.614,218.614,74.01424,12.85779,-999.00,-999.00,-999.0,no,no,no,300234060795690,IMB,AWI-USIABP,unknown,North
2014-08-06T14:45:36Z,1407336336,2014,14,45,218.615,218.615,74.01815,12.84854,-999.00,-999.00,-999.0,no,no,no,300234060795690,IMB,AWI-USIABP,unknown,North
2014-08-06T14:51:21Z,1407336682,2014,14,52,218.619,218.619,74.03597,12.80788,-999.00,-999.00,-999.0,no,no,no,300234060795690,IMB,AWI-USIABP,unknown,North
2014-08-06T14:52:48Z,1407336768,2014,14,53,218.62,218.62,74.03752,12.80368,-999.00,-999.00,-999.0,no,no,no,300234060795690,IMB,AWI-USIABP,unknown,North
2014-08-06T14:54:14Z,1407336854,2014,14,54,218.621,218.621,74.04065,12.79712,-999.00,-999.00,-999.0,no,no,no,300234060795690,IMB,AWI-USIABP,unknown,North
2014-08-06T14:55:40Z,1407336941,2014,14,56,218.622,218.622,74.04704,12.78273,-999.00,-999.00,-999.0,no,no,no,300234060795690,IMB,AWI-USIABP,unknown,North
2014-08-06T14:57:07Z,1407337027,2014,14,57,218.623,218.623,74.04889,12.77812,-999.00,-999.00,-999.0,no,no,no,300234060795690,IMB,AWI-USIABP,unknown,North
2014-08-06T14:58:33Z,1407337114,2014,14,59,218.624,218.624,74.05467,12.76457,-999.00,-999.00,-999.0,no,no,no,300234060795690,IMB,AWI-USIABP,unknown,North
2014-08-06T15:00:00Z,1407337200,2014,15,0,218.625,218.625,74.05771,12.75812,-999.00,-999.00,-999.0,no,no,no,300234060795690,IMB,AWI-USIABP,unknown,North
2014-08-06T15:01:26Z,1407337286,2014,15,2,218.626,218.626,74.06289,12.74581,-999.00,-999.00,-999.0,no,no,no,300234060795690,IMB,AWI-USIABP,unknown,North
2014-08-06T15:02:52Z,1407337373,2014,15,3,218.627,218.627,74.06583,12.73868,-999.00,-999.00,-999.0,no,no,no,300234060795690,IMB,AWI-USIABP,unknown,North
2014-08-06T15:04:19Z,1407337459,2014,15,5,218.628,218.628,74.07189,12.72509,-999.00,-999.00,-999.0,no,no,no,300234060795690,IMB,AWI-USIABP,unknown,North
2014-08-06T15:05:45Z,1407337546,2014,15,6,218.629,218.629,74.07472,12.71835,-999.00,-999.00,-999.0,no,no,no,300234060795690,IMB,AWI-USIABP,unknown,North
2014-08-06T15:07:12Z,1407337632,2014,15,7,218.63,218.63,74.07685,12.71371,-999.00,-999.00,-999.0,no,no,no,300234060795690,IMB,AWI-USIABP,unknown,North
2014-08-06T15:08:38Z,1407337718,2014,15,9,218.631,218.631,74.08249,12.69953,-999.00,-999.00,-999.0,no,no,no,300234060795690,IMB,AWI-USIABP,unknown,North
2014-08-06T15:10:04Z,1407337805,2014,15,10,218.632,218.632,74.08492,12.69554,-999.00,-999.00,-999.0,no,no,no,300234060795690,IMB,AWI-USIABP,unknown,North
2014-08-06T15:11:31Z,1407337891,2014,15,12,218.633,218.633,74.091,12.68099,-999.00,-999.00,-999.0,no,no,no,300234060795690,IMB,AWI-USIABP,unknown,North
2014-08-06T15:12:57Z,1407337978,2014,15,13,218.634,218.634,74.09305,12.67659,-999.00,-999.00,-999.0,no,no,no,300234060795690,IMB,AWI-USIABP,unknown,North
2014-08-06T15:14:24Z,1407338064,2014,15,14,218.635,218.635,74.09811,12.66461,-999.00,-999.00,-999.0,no,no,no,300234060795690,IMB,AWI-USIABP,unknown,North
2014-08-06T15:15:50Z,1407338150,2014,15,16,218.636,218.636,74.10109,12.65809,-999.00,-999.00,-999.0,no,no,no,300234060795690,IMB,AWI-USIABP,unknown,North
2014-08-06T15:17:16Z,1407338237,2014,15,17,218.637,218.637,74.10595,12.64624,-999.00,-999.00,-999.0,no,no,no,300234060795690,IMB,AWI-USIABP,unknown,North
2014-08-06T15:18:43Z,1407338323,2014,15,19,218.638,218.638,74.11019,12.63685,-999.00,-999.00,-999.0,no,no,no,300234060795690,IMB,AWI-USIABP,unknown,North
2014-08-06T15:20:09Z,1407338410,2014,15,20,218.639,218.639,74.11201,12.63337,-999.00,-999.00,-999.0,no,no,no,300234060795690,IMB,AWI-USIABP,unknown,North
2014-08-06T15:21:36Z,1407338496,2014,15,21,218.64,218.64,74.11481,12.62614,-999.00,-999.00,-999.0,no,no,no,300234060795690,IMB,AWI-USIABP,unknown,North
2014-08-06T15:23:02Z,1407338582,2014,15,23,218.641,218.641,74.12079,12.61196,-999.00,-999.00,-999.0,no,no,no,300234060795690,IMB,AWI-USIABP,unknown,North
2014-08-06T15:24:28Z,1407338669,2014,15,25,218.642,218.642,74.12695,12.59758,-999.00,-999.00,-999.0,no,no,no,300234060795690,IMB,AWI-USIABP,unknown,North
2014-08-06T15:25:55Z,1407338755,2014,15,26,218.643,218.643,74.12884,12.59303,-999.00,-999.00,-999.0,no,no,no,300234060795690,IMB,AWI-USIABP,unknown,North
2014-08-06T15:27:21Z,1407338842,2014,15,28,218.644,218.644,74.13513,12.5794,-999.00,-999.00,-999.0,no,no,no,300234060795690,IMB,AWI-USIABP,unknown,North
2014-08-06T15:28:48Z,1407338928,2014,15,29,218.645,218.645,74.13687,12.57445,-999.00,-999.00,-999.0,no,no,no,300234060795690,IMB,AWI-USIABP,unknown,North
2014-08-06T15:31:40Z,1407339101,2014,15,32,218.647,218.647,74.14604,12.5535,-999.00,-999.00,-999.0,no,no,no,300234060795690,IMB,AWI-USIABP,unknown,North
2014-08-06T15:33:07Z,1407339187,2014,15,33,218.648,218.648,74.14943,12.5462,-999.00,-999.00,-999.0,no,no,no,300234060795690,IMB,AWI-USIABP,unknown,North
2014-08-06T15:34:33Z,1407339274,2014,15,34,218.649,218.649,74.15319,12.53768,-999.00,-999.00,-999.0,no,no,no,300234060795690,IMB,AWI-USIABP,unknown,North
2014-08-06T15:36:00Z,1407339360,2014,15,36,218.65,218.65,74.15659,12.52988,-999.00,-999.00,-999.0,no,no,no,300234060795690,IMB,AWI-USIABP,unknown,North
2014-08-06T15:37:26Z,1407339446,2014,15,37,218.651,218.651,74.16148,12.51842,-999.00,-999.00,-999.0,no,no,no,300234060795690,IMB,AWI-USIABP,unknown,North
2014-08-06T15:38:52Z,1407339533,2014,15,39,218.652,218.652,74.16584,12.50889,-999.00,-999.00,-999.0,no,no,no,300234060795690,IMB,AWI-USIABP,unknown,North
2014-08-06T15:40:19Z,1407339619,2014,15,40,218.653,218.653,74.16952,12.49867,-999.00,-999.00,-999.0,no,no,no,300234060795690,IMB,AWI-USIABP,unknown,North
2014-08-06T15:41:45Z,1407339706,2014,15,42,218.654,218.654,74.17264,12.49203,-999.00,-999.00,-999.0,no,no,no,300234060795690,IMB,AWI-USIABP,unknown,North
2014-08-06T15:43:12Z,1407339792,2014,15,43,218.655,218.655,74.17544,12.48631,-999.00,-999.00,-999.0,no,no,no,300234060795690,IMB,AWI-USIABP,unknown,North
2014-08-06T15:44:38Z,1407339878,2014,15,44,218.656,218.656,74.18049,12.47421,-999.00,-999.00,-999.0,no,no,no,300234060795690,IMB,AWI-USIABP,unknown,North
2014-08-06T15:46:04Z,1407339965,2014,15,46,218.657,218.657,74.18364,12.46691,-999.00,-999.00,-999.0,no,no,no,300234060795690,IMB,AWI-USIABP,unknown,North
2014-08-06T15:47:31Z,1407340051,2014,15,47,218.658,218.658,74.18856,12.45546,-999.00,-999.00,-999.0,no,no,no,300234060795690,IMB,AWI-USIABP,unknown,North
2014-08-06T15:48:57Z,1407340138,2014,15,49,218.659,218.659,74.19435,12.44292,-999.00,-999.00,-999.0,no,no,no,300234060795690,IMB,AWI-USIABP,unknown,North
2014-08-06T15:50:24Z,1407340224,2014,15,50,218.66,218.66,74.19708,12.43568,-999.00,-999.00,-999.0,no,no,no,300234060795690,IMB,AWI-USIABP,unknown,North
2014-08-06T15:51:50Z,1407340310,2014,15,52,218.661,218.661,74.20143,12.42573,-999.00,-999.00,-999.0,no,no,no,300234060795690,IMB,AWI-USIABP,unknown,North
2014-08-06T15:53:16Z,1407340397,2014,15,53,218.662,218.662,74.20556,12.41678,-999.00,-999.00,-999.0,no,no,no,300234060795690,IMB,AWI-USIABP,unknown,North
2014-08-06T15:54:43Z,1407340483,2014,15,55,218.663,218.663,74.20883,12.40965,-999.00,-999.00,-999.0,no,no,no,300234060795690,IMB,AWI-USIABP,unknown,North
2014-08-06T15:56:09Z,1407340570,2014,15,56,218.664,218.664,74.21169,12.40209,-999.00,-999.00,-999.0,no,no,no,300234060795690,IMB,AWI-USIABP,unknown,North
2014-08-06T15:57:36Z,1407340656,2014,15,58,218.665,218.665,74.21821,12.38643,-999.00,-999.00,-999.0,no,no,no,300234060795690,IMB,AWI-USIABP,unknown,North
2014-08-06T15:59:02Z,1407340742,2014,15,59,218.666,218.666,74.22035,12.38148,-999.00,-999.00,-999.0,no,no,no,300234060795690,IMB,AWI-USIABP,unknown,North
2014-08-06T16:00:28Z,1407340829,2014,16,1,218.667,218.667,74.22589,12.3683,-999.00,-999.00,-999.0,no,no,no,300234060795690,IMB,AWI-USIABP,unknown,North
2014-08-06T16:01:55Z,1407340915,2014,16,2,218.668,218.668,74.22891,12.36135,-999.00,-999.00,-999.0,no,no,no,300234060795690,IMB,AWI-USIABP,unknown,North
2014-08-06T16:03:21Z,1407341002,2014,16,3,218.669,218.669,74.23336,12.35009,-999.00,-999.00,-999.0,no,no,no,300234060795690,IMB,AWI-USIABP,unknown,North
2014-08-06T16:04:48Z,1407341088,2014,16,5,218.67,218.67,74.23612,12.3445,-999.00,-999.00,-999.0,no,no,no,300234060795690,IMB,AWI-USIABP,unknown,North
2014-08-06T16:06:14Z,1407341174,2014,16,6,218.671,218.671,74.23984,12.33653,-999.00,-999.00,-999.0,no,no,no,300234060795690,IMB,AWI-USIABP,unknown,North
2014-08-06T16:07:40Z,1407341261,2014,16,7,218.672,218.672,74.24392,12.32655,-999.00,-999.00,-999.0,no,no,no,300234060795690,IMB,AWI-USIABP,unknown,North
2014-08-06T16:09:07Z,1407341347,2014,16,9,218.673,218.673,74.24799,12.31777,-999.00,-999.00,-999.0,no,no,no,300234060795690,IMB,AWI-USIABP,unknown,North
2014-08-06T16:10:33Z,1407341434,2014,16,11,218.674,218.674,74.2544,12.30224,-999.00,-999.00,-999.0,no,no,no,300234060795690,IMB,AWI-USIABP,unknown,North
2014-08-06T16:12:00Z,1407341520,2014,16,12,218.675,218.675,74.25616,12.29803,-999.00,-999.00,-999.0,no,no,no,300234060795690,IMB,AWI-USIABP,unknown,North
2014-08-06T16:13:26Z,1407341606,2014,16,14,218.676,218.676,74.26259,12.28419,-999.00,-999.00,-999.0,no,no,no,300234060795690,IMB,AWI-USIABP,unknown,North
2014-08-06T16:14:52Z,1407341693,2014,16,15,218.677,218.677,74.26467,12.27891,-999.00,-999.00,-999.0,no,no,no,300234060795690,IMB,AWI-USIABP,unknown,North
2014-08-06T16:16:19Z,1407341779,2014,16,16,218.678,218.678,74.26799,12.27125,-999.00,-999.00,-999.0,no,no,no,300234060795690,IMB,AWI-USIABP,unknown,North
2014-08-06T16:17:45Z,1407341866,2014,16,18,218.679,218.679,74.27299,12.25885,-999.00,-999.00,-999.0,no,no,no,300234060795690,IMB,AWI-USIABP,unknown,North
2014-08-06T16:19:12Z,1407341952,2014,16,19,218.68,218.68,74.27739,12.24884,-999.00,-999.00,-999.0,no,no,no,300234060795690,IMB,AWI-USIABP,unknown,North
2014-08-06T16:20:38Z,1407342038,2014,16,20,218.681,218.681,74.28023,12.2422,-999.00,-999.00,-999.0,no,no,no,300234060795690,IMB,AWI-USIABP,unknown,North
2014-08-06T16:22:04Z,1407342125,2014,16,22,218.682,218.682,74.28528,12.23118,-999.00,-999.00,-999.0,no,no,no,300234060795690,IMB,AWI-USIABP,unknown,North
2014-08-06T16:23:31Z,1407342211,2014,16,23,218.683,218.683,74.28924,12.22149,-999.00,-999.00,-999.0,no,no,no,300234060795690,IMB,AWI-USIABP,unknown,North
2014-08-06T16:24:57Z,1407342298,2014,16,25,218.684,218.684,74.29273,12.21331,-999.00,-999.00,-999.0,no,no,no,300234060795690,IMB,AWI-USIABP,unknown,North
2014-08-06T16:26:24Z,1407342384,2014,16,26,218.685,218.685,74.29752,12.20192,-999.00,-999.00,-999.0,no,no,no,300234060795690,IMB,AWI-USIABP,unknown,North
2014-08-06T16:27:50Z,1407342470,2014,16,28,218.686,218.686,74.30089,12.19467,-999.00,-999.00,-999.0,no,no,no,300234060795690,IMB,AWI-USIABP,unknown,North
2014-08-06T16:29:16Z,1407342557,2014,16,29,218.687,218.687,74.30407,12.18729,-999.00,-999.00,-999.0,no,no,no,300234060795690,IMB,AWI-USIABP,unknown,North
2014-08-06T16:30:43Z,1407342643,2014,16,31,218.688,218.688,74.31097,12.17175,-999.00,-999.00,-999.0,no,no,no,300234060795690,IMB,AWI-USIABP,unknown,North
2014-08-06T16:32:09Z,1407342730,2014,16,32,218.689,218.689,74.31447,12.16317,-999.00,-999.00,-999.0,no,no,no,300234060795690,IMB,AWI-USIABP,unknown,North
2014-08-06T16:33:36Z,1407342816,2014,16,33,218.69,218.69,74.31747,12.15553,-999.00,-999.00,-999.0,no,no,no,300234060795690,IMB,AWI-USIABP,unknown,North
2014-08-06T16:35:02Z,1407342902,2014,16,35,218.691,218.691,74.32161,12.14583,-999.00,-999.00,-999.0,no,no,no,300234060795690,IMB,AWI-USIABP,unknown,North
2014-08-06T16:36:28Z,1407342989,2014,16,36,218.692,218.692,74.32555,12.13686,-999.00,-999.00,-999.0,no,no,no,300234060795690,IMB,AWI-USIABP,unknown,North
2014-08-06T16:37:55Z,1407343075,2014,16,38,218.693,218.693,74.32904,12.1279,-999.00,-999.00,-999.0,no,no,no,300234060795690,IMB,AWI-USIABP,unknown,North
2014-08-06T16:39:21Z,1407343162,2014,16,39,218.694,218.694,74.33405,12.11643,-999.00,-999.00,-999.0,no,no,no,300234060795690,IMB,AWI-USIABP,unknown,North
2014-08-06T16:40:48Z,1407343248,2014,16,41,218.695,218.695,74.33741,12.10912,-999.00,-999.00,-999.0,no,no,no,300234060795690,IMB,AWI-USIABP,unknown,North
2014-08-06T16:42:14Z,1407343334,2014,16,42,218.696,218.696,74.34053,12.10152,-999.00,-999.00,-999.0,no,no,no,300234060795690,IMB,AWI-USIABP,unknown,North
2014-08-06T16:43:40Z,1407343421,2014,16,43,218.697,218.697,74.34563,12.09029,-999.00,-999.00,-999.0,no,no,no,300234060795690,IMB,AWI-USIABP,unknown,North
2014-08-06T16:45:07Z,1407343507,2014,16,45,218.698,218.698,74.34868,12.08272,-999.00,-999.00,-999.0,no,no,no,300234060795690,IMB,AWI-USIABP,unknown,North
2014-08-06T16:46:33Z,1407343594,2014,16,46,218.699,218.699,74.35388,12.07009,-999.00,-999.00,-999.0,no,no,no,300234060795690,IMB,AWI-USIABP,unknown,North
2014-08-06T16:48:00Z,1407343680,2014,16,48,218.7,218.7,74.35803,12.06025,-999.00,-999.00,-999.0,no,no,no,300234060795690,IMB,AWI-USIABP,unknown,North
2014-08-06T16:49:26Z,1407343766,2014,16,49,218.701,218.701,74.36169,12.05148,-999.00,-999.00,-999.0,no,no,no,300234060795690,IMB,AWI-USIABP,unknown,North
2014-08-06T16:50:52Z,1407343853,2014,16,51,218.702,218.702,74.36725,12.03845,-999.00,-999.00,-999.0,no,no,no,300234060795690,IMB,AWI-USIABP,unknown,North
2014-08-06T16:52:19Z,1407343939,2014,16,52,218.703,218.703,74.37073,12.03147,-999.00,-999.00,-999.0,no,no,no,300234060795690,IMB,AWI-USIABP,unknown,North
2014-08-06T16:53:45Z,1407344026,2014,16,54,218.704,218.704,74.37528,12.02034,-999.00,-999.00,-999.0,no,no,no,300234060795690,IMB,AWI-USIABP,unknown,North
2014-08-06T16:55:12Z,1407344112,2014,16,55,218.705,218.705,74.37811,12.01337,-999.00,-999.00,-999.0,no,no,no,300234060795690,IMB,AWI-USIABP,unknown,North
2014-08-06T16:56:38Z,1407344198,2014,16,56,218.706,218.706,74.38125,12.0056,-999.00,-999.00,-999.0,no,no,no,300234060795690,IMB,AWI-USIABP,unknown,North
2014-08-06T16:59:31Z,1407344371,2014,17,0,218.708,218.708,74.39181,11.98085,-999.00,-999.00,-999.0,no,no,no,300234060795690,IMB,AWI-USIABP,unknown,North
2014-08-06T17:00:57Z,1407344458,2014,17,1,218.709,218.709,74.39519,11.97431,-999.00,-999.00,-999.0,no,no,no,300234060795690,IMB,AWI-USIABP,unknown,North
2014-08-06T17:02:24Z,1407344544,2014,17,2,218.71,218.71,74.39803,11.96727,-999.00,-999.00,-999.0,no,no,no,300234060795690,IMB,AWI-USIABP,unknown,North
2014-08-06T17:05:16Z,1407344717,2014,17,5,218.712,218.712,74.40421,11.95148,-999.00,-999.00,-999.0,no,no,no,300234060795690,IMB,AWI-USIABP,unknown,North
2014-08-06T17:06:43Z,1407344803,2014,17,6,218.713,218.713,74.40717,11.94534,-999.00,-999.00,-999.0,no,no,no,300234060795690,IMB,AWI-USIABP,unknown,North
2014-08-06T17:08:09Z,1407344890,2014,17,8,218.714,218.714,74.41367,11.93093,-999.00,-999.00,-999.0,no,no,no,300234060795690,IMB,AWI-USIABP,unknown,North
2014-08-06T17:09:36Z,1407344976,2014,17,10,218.715,218.715,74.41751,11.92091,-999.00,-999.00,-999.0,no,no,no,300234060795690,IMB,AWI-USIABP,unknown,North
2014-08-06T17:11:02Z,1407345062,2014,17,11,218.716,218.716,74.42053,11.9141,-999.00,-999.00,-999.0,no,no,no,300234060795690,IMB,AWI-USIABP,unknown,North
2014-08-06T17:12:28Z,1407345149,2014,17,12,218.717,218.717,74.42524,11.90338,-999.00,-999.00,-999.0,no,no,no,300234060795690,IMB,AWI-USIABP,unknown,North
2014-08-06T17:13:55Z,1407345235,2014,17,14,218.718,218.718,74.42831,11.89563,-999.00,-999.00,-999.0,no,no,no,300234060795690,IMB,AWI-USIABP,unknown,North
2014-08-06T17:15:21Z,1407345322,2014,17,16,218.719,218.719,74.43511,11.87965,-999.00,-999.00,-999.0,no,no,no,300234060795690,IMB,AWI-USIABP,unknown,North
2014-08-06T17:16:48Z,1407345408,2014,17,17,218.72,218.72,74.43711,11.87431,-999.00,-999.00,-999.0,no,no,no,300234060795690,IMB,AWI-USIABP,unknown,North
2014-08-06T17:18:14Z,1407345494,2014,17,18,218.721,218.721,74.44011,11.86685,-999.00,-999.00,-999.0,no,no,no,300234060795690,IMB,AWI-USIABP,unknown,North
2014-08-06T17:19:40Z,1407345581,2014,17,20,218.722,218.722,74.44492,11.85586,-999.00,-999.00,-999.0,no,no,no,300234060795690,IMB,AWI-USIABP,unknown,North
2014-08-06T17:21:07Z,1407345667,2014,17,21,218.723,218.723,74.44888,11.84771,-999.00,-999.00,-999.0,no,no,no,300234060795690,IMB,AWI-USIABP,unknown,North
2014-08-06T17:22:33Z,1407345754,2014,17,22,218.724,218.724,74.45279,11.83801,-999.00,-999.00,-999.0,no,no,no,300234060795690,IMB,AWI-USIABP,unknown,North
2014-08-06T17:24:00Z,1407345840,2014,17,24,218.725,218.725,74.45581,11.83074,-999.00,-999.00,-999.0,no,no,no,300234060795690,IMB,AWI-USIABP,unknown,North
2014-08-06T17:25:26Z,1407345926,2014,17,25,218.726,218.726,74.46072,11.81934,-999.00,-999.00,-999.0,no,no,no,300234060795690,IMB,AWI-USIABP,unknown,North
2014-08-06T17:26:52Z,1407346013,2014,17,27,218.727,218.727,74.46409,11.81153,-999.00,-999.00,-999.0,no,no,no,300234060795690,IMB,AWI-USIABP,unknown,North
2014-08-06T17:28:19Z,1407346099,2014,17,28,218.728,218.728,74.46691,11.80359,-999.00,-999.00,-999.0,no,no,no,300234060795690,IMB,AWI-USIABP,unknown,North
2014-08-06T17:32:38Z,1407346358,2014,17,33,218.731,218.731,74.48296,11.76619,-999.00,-999.00,-999.0,no,no,no,300234060795690,IMB,AWI-USIABP,unknown,North
2014-08-06T17:34:04Z,1407346445,2014,17,34,218.732,218.732,74.48399,11.76355,-999.00,-999.00,-999.0,no,no,no,300234060795690,IMB,AWI-USIABP,unknown,North
2014-08-06T17:35:31Z,1407346531,2014,17,35,218.733,218.733,74.48771,11.7558,-999.00,-999.00,-999.0,no,no,no,300234060795690,IMB,AWI-USIABP,unknown,North
2014-08-06T17:38:24Z,1407346704,2014,17,39,218.735,218.735,74.49681,11.73388,-999.00,-999.00,-999.0,no,no,no,300234060795690,IMB,AWI-USIABP,unknown,North
2014-08-06T17:39:50Z,1407346790,2014,17,40,218.736,218.736,74.50079,11.72396,-999.00,-999.00,-999.0,no,no,no,300234060795690,IMB,AWI-USIABP,unknown,North